• In Moldova, Republic
  • List of Countries
  • For 7 days
  • Water Temperature
  • Satellite Maps
  • Weather Map
  • Weather Widgets
  • user-avatar
    Login

    Hourly Weather Eisenstadt

    Today, 30 April, Sunday

    Time Temperature Precipitation Wind Pressure Humidity
    00:00 +2°C° 0 mm 1 mps 722 mmHg 85%
    01:00 +2°C° 0 mm 1 mps 722 mmHg 85%
    02:00 +1°C° 0 mm 1 mps 722 mmHg 86%
    03:00 +1°C° 0 mm 1 mps 722 mmHg 86%
    04:00 +1°C° 0 mm 1 mps 722 mmHg 87%
    05:00 +2°C° 0 mm 0 mps 723 mmHg 80%
    06:00 +5°C° 0 mm 0 mps 723 mmHg 73%
    07:00 +7°C° 0 mm 0 mps 724 mmHg 67%
    08:00 +9°C° 0 mm 1 mps 724 mmHg 63%
    09:00 +11°C° 0 mm 1 mps 724 mmHg 58%
    10:00 +12°C° 0 mm 2 mps 723 mmHg 54%
    11:00 +13°C° 0 mm 2 mps 723 mmHg 53%
    12:00 +12°C° 0 mm 3 mps 723 mmHg 51%
    13:00 +13°C° 0 mm 3 mps 722 mmHg 50%
    14:00 +13°C° 0 mm 3 mps 722 mmHg 51%
    15:00 +13°C° 0 mm 3 mps 722 mmHg 53%
    16:00 +13°C° 0 mm 3 mps 722 mmHg 54%
    17:00 +11°C° 0 mm 3 mps 721 mmHg 62%
    18:00 +9°C° 0 mm 3 mps 721 mmHg 71%
    19:00 +8°C° 0 mm 3 mps 721 mmHg 79%
    20:00 +7°C° 0 mm 3 mps 721 mmHg 80%
    21:00 +5°C° 0 mm 3 mps 721 mmHg 81%
    22:00 +5°C° 0 mm 3 mps 721 mmHg 82%
    23:00 +4°C° 0 mm 3 mps 721 mmHg 83%

    Tomorrow, 1 May, Monday

    Time Temperature Precipitation Wind Pressure Humidity
    00:00 +4°C° 0 mm 3 mps 721 mmHg 84%
    01:00 +4°C° 0 mm 3 mps 721 mmHg 85%
    02:00 +4°C° 0 mm 3 mps 720 mmHg 87%
    03:00 +3°C° 0 mm 3 mps 720 mmHg 88%
    04:00 +3°C° 0 mm 3 mps 720 mmHg 90%
    05:00 +4°C° 0 mm 3 mps 720 mmHg 86%
    06:00 +5°C° 0 mm 3 mps 720 mmHg 83%
    07:00 +6°C° 0 mm 4 mps 720 mmHg 80%
    08:00 +8°C° 0 mm 4 mps 720 mmHg 76%
    09:00 +10°C° 0 mm 4 mps 720 mmHg 71%
    10:00 +12°C° 0 mm 5 mps 720 mmHg 67%
    11:00 +12°C° 0 mm 5 mps 720 mmHg 66%
    12:00 +13°C° 0 mm 4 mps 720 mmHg 66%
    13:00 +14°C° 0 mm 4 mps 720 mmHg 65%
    14:00 +14°C° 0 mm 4 mps 719 mmHg 65%
    15:00 +14°C° 0 mm 4 mps 719 mmHg 66%
    16:00 +14°C° 0 mm 4 mps 719 mmHg 66%
    17:00 +13°C° 0 mm 3 mps 719 mmHg 73%
    18:00 +11°C° 0 mm 3 mps 719 mmHg 80%
    19:00 +10°C° 0 mm 2 mps 719 mmHg 88%
    20:00 +9°C° 0 mm 2 mps 720 mmHg 89%
    21:00 +8°C° 0 mm 2 mps 720 mmHg 89%
    22:00 +7°C° 0 mm 2 mps 720 mmHg 90%
    23:00 +7°C° 0.1 mm 2 mps 721 mmHg 90%

    Day after tomorrow, 2 May, Tuesday

    Time Temperature Precipitation Wind Pressure Humidity
    00:00 +7°C° 0.1 mm 2 mps 721 mmHg 91%
    01:00 +7°C° 0.1 mm 2 mps 721 mmHg 91%
    02:00 +7°C° 0.4 mm 2 mps 721 mmHg 91%
    03:00 +7°C° 0.4 mm 2 mps 721 mmHg 91%
    04:00 +5°C° 0.4 mm 3 mps 722 mmHg 91%
    05:00 +7°C° 0.2 mm 3 mps 722 mmHg 90%
    06:00 +7°C° 0.2 mm 3 mps 722 mmHg 89%
    07:00 +7°C° 0.2 mm 3 mps 723 mmHg 88%
    08:00 +8°C° 0 mm 3 mps 723 mmHg 84%
    09:00 +9°C° 0 mm 3 mps 723 mmHg 81%
    10:00 +10°C° 0 mm 3 mps 724 mmHg 77%
    11:00 +11°C° 0 mm 3 mps 724 mmHg 73%
    12:00 +13°C° 0 mm 2 mps 724 mmHg 68%
    13:00 +15°C° 0 mm 2 mps 724 mmHg 64%
    14:00 +15°C° 0 mm 2 mps 724 mmHg 63%
    15:00 +15°C° 0 mm 1 mps 723 mmHg 63%
    16:00 +16°C° 0 mm 1 mps 723 mmHg 62%
    17:00 +14°C° 0 mm 1 mps 723 mmHg 71%
    18:00 +12°C° 0 mm 1 mps 723 mmHg 79%
    19:00 +10°C° 0 mm 1 mps 723 mmHg 88%
    20:00 +9°C° 0 mm 1 mps 723 mmHg 89%
    21:00 +8°C° 0 mm 1 mps 723 mmHg 90%
    22:00 +7°C° 0 mm 1 mps 723 mmHg 91%
    23:00 +7°C° 0 mm 1 mps 723 mmHg 91%

    3 May, Wednesday

    Time Temperature Precipitation Wind Pressure Humidity
    00:00 +7°C° 0 mm 1 mps 723 mmHg 91%
    01:00 +7°C° 0 mm 1 mps 722 mmHg 91%
    02:00 +7°C° 0 mm 1 mps 722 mmHg 92%
    03:00 +6°C° 0 mm 0 mps 722 mmHg 92%
    04:00 +6°C° 0 mm 0 mps 722 mmHg 92%
    05:00 +7°C° 0 mm 0 mps 722 mmHg 88%
    06:00 +9°C° 0 mm 0 mps 722 mmHg 83%
    07:00 +12°C° 0 mm 1 mps 722 mmHg 79%
    08:00 +14°C° 0 mm 1 mps 722 mmHg 74%
    09:00 +15°C° 0 mm 2 mps 722 mmHg 70%
    10:00 +17°C° 0 mm 2 mps 722 mmHg 65%
    11:00 +17°C° 0 mm 3 mps 722 mmHg 63%
    12:00 +18°C° 0 mm 3 mps 722 mmHg 60%
    13:00 +19°C° 0 mm 4 mps 721 mmHg 58%
    14:00 +19°C° 0 mm 4 mps 721 mmHg 58%
    15:00 +19°C° 0 mm 4 mps 721 mmHg 58%
    16:00 +19°C° 0 mm 4 mps 720 mmHg 58%
    17:00 +17°C° 0 mm 3 mps 720 mmHg 66%
    18:00 +14°C° 0 mm 3 mps 720 mmHg 75%
    19:00 +13°C° 0 mm 2 mps 720 mmHg 83%
    20:00 +12°C° 0 mm 2 mps 720 mmHg 84%
    21:00 +10°C° 0 mm 2 mps 720 mmHg 86%
    22:00 +9°C° 0 mm 2 mps 720 mmHg 87%
    23:00 +8°C° 0 mm 2 mps 720 mmHg 88%

    4 May, Thursday

    Time Temperature Precipitation Wind Pressure Humidity
    00:00 +9°C° 0 mm 1 mps 720 mmHg 89%
    01:00 +8°C° 0 mm 1 mps 720 mmHg 90%
    02:00 +8°C° 0 mm 1 mps 719 mmHg 90%
    03:00 +8°C° 0 mm 1 mps 719 mmHg 91%
    04:00 +7°C° 0 mm 1 mps 719 mmHg 92%
    05:00 +9°C° 0 mm 1 mps 719 mmHg 87%
    06:00 +11°C° 0 mm 1 mps 719 mmHg 83%
    07:00 +13°C° 0 mm 1 mps 720 mmHg 79%
    08:00 +14°C° 0.1 mm 1 mps 720 mmHg 75%
    09:00 +15°C° 0.1 mm 1 mps 720 mmHg 71%
    10:00 +18°C° 0.1 mm 1 mps 720 mmHg 68%
    11:00 +18°C° 0.3 mm 1 mps 719 mmHg 66%
    12:00 +18°C° 0.3 mm 2 mps 719 mmHg 65%
    13:00 +18°C° 0.3 mm 2 mps 719 mmHg 63%
    14:00 +18°C° 0.3 mm 2 mps 719 mmHg 65%
    15:00 +18°C° 0.3 mm 2 mps 718 mmHg 66%
    16:00 +18°C° 0.3 mm 2 mps 718 mmHg 67%
    17:00 +16°C° 0.8 mm 2 mps 718 mmHg 73%
    18:00 +14°C° 0.8 mm 2 mps 718 mmHg 80%
    19:00 +13°C° 0.8 mm 2 mps 718 mmHg 87%
    20:00 +12°C° 0.4 mm 1 mps 718 mmHg 89%
    21:00 +11°C° 0.4 mm 1 mps 718 mmHg 90%
    22:00 +10°C° 0.4 mm 1 mps 718 mmHg 92%
    23:00 +9°C° 0 mm 1 mps 718 mmHg 93%

    5 May, Friday

    Time Temperature Precipitation Wind Pressure Humidity
    00:00 +9°C° 0 mm 1 mps 718 mmHg 93%
    01:00 +8°C° 0 mm 1 mps 718 mmHg 94%
    02:00 +8°C° 0.2 mm 1 mps 718 mmHg 94%
    03:00 +8°C° 0.2 mm 1 mps 718 mmHg 94%
    04:00 +8°C° 0.2 mm 1 mps 718 mmHg 94%
    05:00 +9°C° 0.2 mm 2 mps 719 mmHg 91%
    06:00 +10°C° 0.2 mm 2 mps 719 mmHg 89%
    07:00 +12°C° 0.2 mm 2 mps 719 mmHg 87%
    08:00 +13°C° 0.1 mm 3 mps 719 mmHg 81%
    09:00 +14°C° 0.1 mm 3 mps 720 mmHg 75%
    10:00 +15°C° 0.1 mm 4 mps 720 mmHg 70%
    11:00 +17°C° 0.4 mm 4 mps 720 mmHg 68%
    12:00 +17°C° 0.4 mm 4 mps 720 mmHg 66%
    13:00 +18°C° 0.4 mm 4 mps 720 mmHg 63%
    14:00 +18°C° 0.3 mm 4 mps 720 mmHg 64%
    15:00 +17°C° 0.3 mm 4 mps 720 mmHg 65%
    16:00 +17°C° 0.3 mm 4 mps 720 mmHg 66%
    17:00 +15°C° 0.1 mm 4 mps 720 mmHg 72%
    18:00 +13°C° 0.1 mm 3 mps 720 mmHg 79%
    19:00 +11°C° 0.1 mm 3 mps 720 mmHg 86%
    20:00 +11°C° 0.1 mm 3 mps 721 mmHg 87%
    21:00 +10°C° 0.1 mm 3 mps 721 mmHg 87%
    22:00 +10°C° 0.1 mm 4 mps 721 mmHg 88%
    23:00 +9°C° 0 mm 3 mps 721 mmHg 89%
    Show more